Orbital Elements at Epoch 2459200.5 (2020-Dec-17.0) TDB
Reference: JPL 27 (heliocentric ecliptic J2000)
Element | Value | Uncertainty (1-sigma) | Units |
e | .2115836843975831 | 4.5411e-08 | |
a | 2.588407865708889 | 1.2054e-08 | au |
q | 2.040742992758517 | 1.1597e-07 | au |
i | 3.984168137552039 | 4.6856e-06 | deg |
node | 338.8087921894923 | 6.2658e-05 | deg |
peri | 198.2834941058651 | 6.3293e-05 | deg |
M | 244.821043998677 | 1.1178e-05 | deg |
tp | 2459687.151571509058 (2022-Apr-17.65157151) | 4.9108e-05 | TDB |
period | 1521.064019205455 4.16 | 1.0626e-05 2.909e-08 | d yr |
n | .2366764287725706 | 1.6533e-09 | deg/d |
Q | 3.13607273865926 | 1.4605e-08 | au |
|
| | Orbit Determination Parameters
Additional Information
|